FW6151 Weather Reports


time (UTC)temp
F
wind
direction
speed
knots
gust
knots
rain 1hr
in
rain 24hr
in
rain mn
in
humidity
%
barometer
mb
20260906082051 64 240 0.0 0.0 0.00 0.00 0.00 81 1027.8
20260906081554 64 240 0.0 0.0 0.00 0.00 0.00 83 1028.0
20260906081049 63 243 0.0 0.0 0.00 0.00 0.00 84 1028.2
20260906080548 63 299 0.0 0.0 0.00 0.00 0.00 85 1028.4
20260906080052 62 309 0.0 0.0 0.00 0.00 0.00 86 1028.3
20260906075546 62 309 0.0 0.0 0.00 0.00 0.00 87 1028.3
20260906075046 61 309 0.0 0.0 0.00 0.00 0.00 88 1028.3
20260906074545 61 308 0.0 0.0 0.00 0.00 0.00 89 1028.3
20260906074045 60 308 0.0 0.0 0.00 0.00 0.00 89 1028.2
20260906073545 60 307 0.0 0.0 0.00 0.00 0.00 90 1028.3
20260906073044 60 307 0.0 0.0 0.00 0.00 0.00 90 1028.3
20260906072543 59 314 0.0 0.0 0.00 0.00 0.00 90 1028.3
20260906072043 59 313 0.0 0.0 0.00 0.00 0.00 91 1028.3
20260906071542 59 313 0.0 0.0 0.00 0.00 0.00 91 1028.2
20260906071046 59 313 0.0 0.0 0.00 0.00 0.00 92 1028.3
20260906070542 58 315 0.0 0.0 0.00 0.00 0.00 92 1028.3
20260906070042 58 315 0.0 0.0 0.00 0.00 0.00 92 1028.2
20260906065543 57 315 0.0 0.0 0.00 0.00 0.00 92 1028.2
20260906065041 57 315 0.0 0.0 0.00 0.00 0.00 92 1028.2
20260906064541 57 315 0.0 0.0 0.00 0.00 0.00 92 1028.1
20260906064040 57 315 0.0 0.0 0.00 0.00 0.00 92 1028.1
20260906063539 56 315 0.0 0.0 0.00 0.00 0.00 92 1028.2
20260906063039 56 315 0.0 0.0 0.00 0.00 0.00 92 1028.1
20260906062537 56 315 0.0 0.0 0.00 0.00 0.00 92 1028.2
20260906062039 56 315 0.0 0.0 0.00 0.00 0.00 92 1028.2
20260906061539 56 315 0.0 0.0 0.00 0.00 0.00 92 1028.3
20260906061037 55 315 0.0 0.0 0.00 0.00 0.00 92 1028.4
20260906060536 55 315 0.0 0.0 0.00 0.00 0.00 91 1028.4
20260906060034 55 315 0.0 0.0 0.00 0.00 0.00 91 1028.4
20260906055534 55 315 0.0 0.0 0.00 0.00 0.00 91 1028.4
20260906055034 55 315 0.0 0.0 0.00 0.00 0.00 91 1028.3
20260906054534 55 315 0.0 0.0 0.00 0.00 0.00 91 1028.2
20260906054032 55 315 0.0 0.0 0.00 0.00 0.00 91 1028.2
20260906053534 55 315 0.0 0.0 0.00 0.00 0.00 91 1028.2
20260906053031 55 315 0.0 0.0 0.00 0.00 0.00 91 1028.2
20260906052531 55 315 0.0 0.0 0.00 0.00 0.00 91 1028.1
20260906052030 55 315 0.0 0.0 0.00 0.00 0.00 91 1028.2
20260906051529 55 315 0.0 0.0 0.00 0.00 0.00 91 1028.3
20260906051029 55 315 0.0 0.0 0.00 0.00 0.00 91 1028.2
20260906050528 55 315 0.0 0.0 0.00 0.00 0.00 91 1028.1
20260906050028 56 315 0.0 0.0 0.00 0.00 0.00 91 1028.0
20260906045529 56 315 0.0 0.0 0.00 0.00 0.00 91 1027.9
20260906045027 56 315 0.0 3.5 0.00 0.00 0.00 91 1027.9
20260906044533 56 317 0.0 3.5 0.00 0.00 0.00 91 1028.0
20260906044027 56 282 0.0 2.6 0.00 0.00 0.00 91 1027.9
20260906043529 56 291 0.0 2.6 0.00 0.00 0.00 90 1027.9
20260906043026 56 284 0.0 0.0 0.00 0.00 0.00 90 1027.8
20260906042526 56 284 0.0 0.0 0.00 0.00 0.00 91 1027.7
20260906042025 56 286 0.0 0.0 0.00 0.00 0.00 90 1027.7
20260906041524 56 286 0.0 0.0 0.00 0.00 0.00 90 1027.7
20260906041029 56 286 0.0 0.0 0.00 0.00 0.00 90 1027.7
20260906040526 56 286 0.0 0.0 0.00 0.00 0.00 90 1027.8
20260906040030 56 286 0.0 0.0 0.00 0.00 0.00 90 1027.8
20260906035523 56 286 0.0 0.0 0.00 0.00 0.00 90 1027.7
20260906035024 57 286 0.0 0.0 0.00 0.00 0.00 90 1027.8
20260906034523 57 286 0.0 0.0 0.00 0.00 0.00 90 1027.8
20260906034023 57 286 0.0 0.0 0.00 0.00 0.00 90 1027.8
20260906033522 57 286 0.0 0.0 0.00 0.00 0.00 90 1027.9
20260906033022 57 286 0.0 0.0 0.00 0.00 0.00 90 1027.8
20260906032524 57 286 0.0 0.0 0.00 0.00 0.00 90 1027.8
20260906032021 57 286 0.0 0.0 0.00 0.00 0.00 89 1028.0
20260906031534 57 286 0.0 0.0 0.00 0.00 0.00 89 1028.0
20260906031020 57 286 0.0 0.0 0.00 0.00 0.00 89 1028.0
20260906030520 57 286 0.0 0.0 0.00 0.00 0.00 89 1028.0
20260906030020 57 286 0.0 0.0 0.00 0.00 0.00 89 1028.0
20260906025519 57 286 0.0 0.0 0.00 0.00 0.00 89 1028.0
20260906025020 57 286 0.0 0.0 0.00 0.00 0.00 89 1028.0
20260906024519 58 286 0.0 0.0 0.00 0.00 0.00 89 1028.0
20260906024019 58 286 0.0 0.0 0.00 0.00 0.00 89 1027.9
20260906023516 58 286 0.0 0.0 0.00 0.00 0.00 89 1027.9
20260906023019 58 286 0.0 0.0 0.00 0.00 0.00 89 1028.0
20260906022515 58 286 0.0 0.0 0.00 0.00 0.00 88 1027.9
20260906022015 58 286 0.0 0.0 0.00 0.00 0.00 88 1027.9
20260906021515 58 286 0.0 0.0 0.00 0.00 0.00 88 1027.8
20260906021014 58 286 0.0 0.0 0.00 0.00 0.00 88 1027.9
20260906020514 58 286 0.0 0.0 0.00 0.00 0.00 88 1027.9
20260906020013 59 286 0.0 0.0 0.00 0.00 0.00 88 1027.8
20260906015515 59 286 0.0 0.0 0.00 0.00 0.00 88 1027.7
20260906015012 59 286 0.0 0.0 0.00 0.00 0.00 88 1027.7
20260906014513 59 286 0.0 0.0 0.00 0.00 0.00 88 1027.7
20260906014015 59 286 0.0 0.0 0.00 0.00 0.00 88 1027.7
20260906013511 59 286 0.0 0.0 0.00 0.00 0.00 88 1027.7
20260906013011 59 286 0.0 0.0 0.00 0.00 0.00 88 1027.5
20260906012509 59 286 0.0 0.0 0.00 0.00 0.00 88 1027.6
20260906012009 59 286 0.0 0.0 0.00 0.00 0.00 88 1027.5
20260906011513 59 286 0.0 0.0 0.00 0.00 0.00 88 1027.5
20260906011015 59 286 0.0 0.0 0.00 0.00 0.00 88 1027.5
20260906010510 60 286 0.0 0.0 0.00 0.00 0.00 88 1027.5
20260906010008 60 286 0.0 0.9 0.00 0.00 0.00 88 1027.5
20260906005508 60 286 0.0 0.9 0.00 0.00 0.00 88 1027.5
20260906005008 60 261 0.0 0.0 0.00 0.00 0.00 88 1027.5
20260906004508 60 256 0.0 0.0 0.00 0.00 0.00 88 1027.5
20260906004007 60 256 0.0 0.0 0.00 0.00 0.00 88 1027.6
20260906003507 60 256 0.0 0.0 0.00 0.00 0.00 88 1027.6
20260906003011 60 256 0.0 0.0 0.00 0.00 0.00 87 1027.6
20260906002505 60 302 0.0 0.0 0.00 0.00 0.00 87 1027.6
20260906002005 60 300 0.0 0.0 0.00 0.00 0.00 87 1027.7
20260906001505 60 309 0.0 0.0 0.00 0.00 0.00 87 1027.7
20260906001004 60 309 0.0 0.9 0.00 0.00 0.00 87 1027.7
20260906000504 61 301 0.0 0.0 0.00 0.00 0.00 87 1027.7
20260906000004 61 301 0.0 1.7 0.00 0.00 0.00 87 1027.7
20260905235502 61 300 0.0 1.7 0.00 0.00 0.00 87 1027.6
20260905235003 61 308 0.0 0.0 0.00 0.00 0.00 87 1027.7
20260905234507 61 307 0.0 0.0 0.00 0.00 0.00 87 1027.8
20260905234001 61 307 0.0 0.0 0.00 0.00 0.00 87 1027.8
20260905233501 61 304 0.0 3.5 0.00 0.00 0.00 87 1027.8
20260905233002 61 309 0.0 3.5 0.00 0.00 0.00 87 1027.8
20260905232600 61 306 0.0 2.6 0.00 0.00 0.00 87 1027.8
20260905232101 61 305 0.0 0.0 0.00 0.00 0.00 87 1027.7
20260905231600 62 305 0.0 0.0 0.00 0.00 0.00 87 1027.7
20260905231100 62 305 0.0 0.9 0.00 0.00 0.00 87 1027.7
20260905230559 62 305 0.0 0.9 0.00 0.00 0.00 87 1027.8
20260905230059 62 258 0.0 0.0 0.00 0.00 0.00 87 1027.8
20260905225559 62 250 0.0 0.0 0.00 0.00 0.00 87 1027.8
20260905225058 62 248 0.0 0.0 0.00 0.00 0.00 87 1027.8
20260905224607 62 311 0.0 0.0 0.00 0.00 0.00 87 1027.8
20260905224057 62 319 0.0 3.5 0.00 0.00 0.00 87 1027.8
20260905223558 62 319 0.0 4.3 0.00 0.00 0.00 87 1027.8
20260905223057 62 313 0.0 4.3 0.00 0.00 0.00 87 1027.7
20260905222556 62 311 0.9 4.3 0.00 0.00 0.00 87 1027.7
20260905222055 62 315 0.0 4.3 0.00 0.00 0.00 87 1027.7
20260905221559 62 325 0.9 4.3 0.00 0.00 0.00 87 1027.6
20260905221054 62 316 0.9 4.3 0.00 0.00 0.00 87 1027.6
20260905220553 63 316 0.0 0.0 0.00 0.00 0.00 86 1027.6
20260905220100 63 315 0.0 3.5 0.00 0.00 0.00 86 1027.6
20260905215552 63 317 0.0 4.3 0.00 0.00 0.00 86 1027.6
20260905215051 63 317 1.7 4.3 0.00 0.00 0.00 86 1027.6
20260905214551 63 319 0.0 3.5 0.00 0.00 0.00 86 1027.6
20260905214051 63 317 0.0 2.6 0.00 0.00 0.00 86 1027.6
20260905213550 63 302 0.0 0.0 0.00 0.00 0.00 86 1027.7
20260905213050 63 250 0.0 0.0 0.00 0.00 0.00 86 1027.6
20260905212549 64 252 0.0 0.0 0.00 0.00 0.00 86 1027.7
20260905212047 64 240 0.0 0.9 0.00 0.00 0.00 86 1027.5
20260905211549 64 292 0.0 4.3 0.00 0.00 0.00 85 1027.5
20260905211047 64 318 0.9 4.3 0.00 0.00 0.00 85 1027.5
20260905210546 64 317 0.0 0.9 0.00 0.00 0.00 85 1027.4
20260905210104 65 325 0.0 2.6 0.00 0.00 0.00 85 1027.4
20260905205546 65 315 0.0 4.3 0.00 0.00 0.00 84 1027.4
20260905205044 65 313 0.9 4.3 0.00 0.00 0.00 84 1027.4
20260905204543 65 324 0.0 4.3 0.00 0.00 0.00 83 1027.4
20260905204046 65 192 0.0 0.0 0.00 0.00 0.00 83 1027.3
20260905203544 66 192 0.0 0.0 0.00 0.00 0.00 83 1027.3
20260905203043 66 192 0.0 0.0 0.00 0.00 0.00 82 1027.3
20260905202539 66 192 0.0 0.0 0.00 0.00 0.00 82 1027.3
20260905202039 66 192 0.0 2.6 0.00 0.00 0.00 82 1027.4
20260905201540 66 192 0.0 2.6 0.00 0.00 0.00 82 1027.3
20260905201037 67 319 0.0 0.0 0.00 0.00 0.00 81 1027.3
20260905200537 67 322 0.0 2.6 0.00 0.00 0.00 81 1027.2
20260905200051 67 323 0.0 4.3 0.00 0.00 0.00 81 1027.2
20260905195535 67 319 0.0 3.5 0.00 0.00 0.00 80 1027.1
20260905195034 68 174 0.0 0.0 0.00 0.00 0.00 79 1027.0
20260905194536 68 174 0.0 0.0 0.00 0.00 0.00 78 1026.9
20260905194033 68 174 0.0 0.0 0.00 0.00 0.00 78 1026.9
20260905193534 69 174 0.0 0.0 0.00 0.00 0.00 77 1026.8
20260905193032 69 174 0.0 0.0 0.00 0.00 0.00 77 1026.9
20260905192531 69 174 0.0 0.0 0.00 0.00 0.00 76 1026.7
20260905192032 69 174 0.0 0.0 0.00 0.00 0.00 75 1026.7
20260905191531 70 174 0.0 0.0 0.00 0.00 0.00 74 1026.7
20260905191030 70 174 0.0 0.0 0.00 0.00 0.00 73 1026.6
20260905190529 70 174 0.0 0.0 0.00 0.00 0.00 70 1026.5
20260905190031 71 174 0.0 0.0 0.00 0.00 0.00 69 1026.5
20260905185533 71 174 0.0 0.0 0.00 0.00 0.00 69 1026.4
20260905185029 71 174 0.0 0.0 0.00 0.00 0.00 69 1026.6
20260905184533 71 174 0.0 0.0 0.00 0.00 0.00 69 1026.5
20260905184028 72 174 0.0 0.0 0.00 0.00 0.00 69 1026.4
20260905183528 72 174 0.0 0.0 0.00 0.00 0.00 68 1026.3
20260905183029 72 174 0.0 0.0 0.00 0.00 0.00 68 1026.1
20260905182527 72 174 0.0 0.0 0.00 0.00 0.00 67 1026.2
20260905182028 73 174 0.0 0.0 0.00 0.00 0.00 66 1026.1
20260905181529 73 174 0.0 0.0 0.00 0.00 0.00 66 1026.1
20260905181027 73 174 0.0 0.0 0.00 0.00 0.00 65 1026.0
20260905180627 73 174 0.0 0.0 0.00 0.00 0.00 65 1026.1
20260905180029 73 174 0.0 0.0 0.00 0.00 0.00 64 1026.1
20260905175526 73 174 0.0 0.0 0.00 0.00 0.00 65 1026.0
20260905175026 74 174 0.0 0.9 0.00 0.00 0.00 64 1026.0
20260905174527 74 174 0.0 0.9 0.00 0.00 0.00 65 1026.0
20260905174026 74 134 0.0 2.6 0.00 0.00 0.00 65 1025.9
20260905173526 74 134 0.0 2.6 0.00 0.00 0.00 64 1025.8
20260905173026 74 181 0.0 0.0 0.00 0.00 0.00 65 1025.8
20260905172525 74 181 0.0 0.9 0.00 0.00 0.00 64 1025.8
20260905172025 74 181 0.0 0.9 0.00 0.00 0.00 64 1025.8
20260905171538 75 181 0.0 1.7 0.00 0.00 0.00 64 1025.9
20260905171025 75 181 0.0 2.6 0.00 0.00 0.00 64 1025.9
20260905170525 75 181 0.0 3.5 0.00 0.00 0.00 63 1025.9
20260905170030 75 180 0.0 3.5 0.00 0.00 0.00 63 1025.8
20260905165524 75 59 0.9 2.6 0.00 0.00 0.00 63 1025.7
20260905165024 75 117 0.0 2.6 0.00 0.00 0.00 63 1025.7
20260905164525 75 105 0.0 5.2 0.00 0.00 0.00 63 1025.6
20260905164025 75 355 0.9 5.2 0.00 0.00 0.00 64 1025.6
20260905163524 75 325 0.9 3.5 0.00 0.00 0.00 64 1025.6
20260905163025 75 162 0.0 3.5 0.00 0.00 0.00 66 1025.6
20260905162523 75 327 0.9 3.5 0.00 0.00 0.00 66 1025.5
20260905162024 75 254 0.0 4.3 0.00 0.00 0.00 66 1025.5
20260905161534 75 213 0.0 2.6 0.00 0.00 0.00 66 1025.5
20260905161026 75 121 0.0 2.6 0.00 0.00 0.00 66 1025.5
20260905160527 75 128 0.0 2.6 0.00 0.00 0.00 66 1025.5
20260905160036 75 262 0.0 4.3 0.00 0.00 0.00 66 1025.4
20260905155523 75 251 0.9 4.3 0.00 0.00 0.00 66 1025.5
20260905155022 75 344 0.9 4.3 0.00 0.00 0.00 66 1025.5
20260905154544 74 350 0.9 3.5 0.00 0.00 0.00 66 1025.5
20260905154023 74 293 0.0 2.6 0.00 0.00 0.00 67 1025.5
20260905153523 74 290 0.0 3.5 0.00 0.00 0.00 68 1025.5
20260905153026 74 312 0.0 3.5 0.00 0.00 0.00 69 1025.6
20260905152522 74 267 0.0 1.7 0.00 0.00 0.00 70 1025.6
20260905152022 73 269 0.0 1.7 0.00 0.00 0.00 71 1025.7
20260905151523 73 269 0.0 1.7 0.00 0.00 0.00 71 1025.7
20260905151024 73 288 0.0 3.5 0.00 0.00 0.00 72 1025.7
20260905150521 73 312 0.0 3.5 0.00 0.00 0.00 72 1025.8
20260905150021 73 132 0.0 0.9 0.00 0.00 0.00 73 1025.8
20260905145520 72 132 0.0 1.7 0.00 0.00 0.00 73 1025.8
20260905145023 72 132 0.0 2.6 0.00 0.00 0.00 74 1025.8
20260905144535 72 134 0.0 1.7 0.00 0.00 0.00 74 1025.8
20260905144020 72 126 0.0 0.0 0.00 0.00 0.00 74 1025.8
20260905143520 71 126 0.0 0.0 0.00 0.00 0.00 74 1025.9
20260905143020 71 126 0.0 1.7 0.00 0.00 0.00 75 1025.8
20260905142519 71 126 0.0 1.7 0.00 0.00 0.00 76 1025.9
20260905142024 71 128 0.0 2.6 0.00 0.00 0.00 76 1025.9
20260905141524 70 128 0.0 2.6 0.00 0.00 0.00 77 1025.9
20260905141021 70 128 0.0 1.7 0.00 0.00 0.00 78 1026.0
20260905140519 70 128 0.0 1.7 0.00 0.00 0.00 78 1026.0
20260905140026 70 128 0.0 1.7 0.00 0.00 0.00 78 1026.0
20260905135519 69 128 0.0 0.9 0.00 0.00 0.00 78 1026.0
20260905135020 69 128 0.0 1.7 0.00 0.00 0.00 79 1026.0
20260905134520 69 128 0.0 1.7 0.00 0.00 0.00 79 1026.0
20260905134019 69 128 0.0 1.7 0.00 0.00 0.00 79 1026.1
20260905133522 69 128 0.0 2.6 0.00 0.00 0.00 79 1026.1
20260905133018 69 128 0.0 2.6 0.00 0.00 0.00 79 1026.2
20260905132518 69 63 0.0 2.6 0.00 0.00 0.00 79 1026.2
20260905132019 69 63 0.9 5.2 0.00 0.00 0.00 78 1026.2
20260905131518 69 307 1.7 5.2 0.00 0.00 0.00 78 1026.2
20260905131019 69 298 1.7 4.3 0.00 0.00 0.00 78 1026.2
20260905130520 69 13 0.9 3.5 0.00 0.00 0.00 78 1026.3
20260905130019 69 360 0.9 3.5 0.00 0.00 0.00 78 1026.2
20260905125517 70 314 0.9 3.5 0.00 0.00 0.00 78 1026.2
20260905125017 70 31 0.9 4.3 0.00 0.00 0.00 78 1026.3
20260905124528 70 313 1.7 7.0 0.00 0.00 0.00 78 1026.2
20260905124018 70 331 0.9 6.1 0.00 0.00 0.00 78 1026.2
20260905123516 70 207 2.6 6.1 0.00 0.00 0.00 78 1026.1
20260905123016 70 286 0.9 7.0 0.00 0.00 0.00 78 1026.1
20260905122518 70 33 2.6 7.8 0.00 0.00 0.00 78 1026.1
20260905122014 70 355 1.7 7.8 0.00 0.00 0.00 79 1026.0
20260905121517 70 249 1.7 5.2 0.00 0.00 0.00 79 1026.0
20260905121014 70 196 1.7 7.0 0.00 0.00 0.00 79 1026.1
20260905120514 70 196 2.6 7.0 0.00 0.00 0.00 79 1026.1
20260905120013 70 227 2.6 7.0 0.00 0.00 0.00 79 1026.0
20260905115516 70 78 0.9 7.0 0.00 0.00 0.00 78 1026.0
20260905115013 70 329 2.6 7.8 0.00 0.00 0.00 78 1026.0
20260905114512 70 188 1.7 9.6 0.00 0.00 0.00 78 1025.9
20260905114012 70 331 2.6 8.7 0.00 0.00 0.00 78 1025.9
20260905113513 70 294 2.6 8.7 0.00 0.00 0.00 78 1025.8
20260905113012 71 258 0.9 8.7 0.00 0.00 0.00 77 1025.8
20260905112510 72 315 2.6 7.0 0.00 0.00 0.00 75 1025.8
20260905112010 72 341 1.7 9.6 0.00 0.00 0.00 74 1025.7
20260905111509 73 360 2.6 9.6 0.00 0.00 0.00 72 1025.7
20260905111009 74 232 1.7 6.1 0.00 0.00 0.00 69 1025.5
20260905110511 75 321 1.7 5.2 0.00 0.00 0.00 68 1025.4
20260905110107 75 268 1.7 5.2 0.00 0.00 0.00 66 1025.3
20260905105507 75 101 0.0 5.2 0.00 0.00 0.00 64 1025.2
20260905105005 76 346 1.7 5.2 0.00 0.00 0.00 64 1025.2
20260905104505 76 119 0.9 4.3 0.00 0.00 0.00 64 1025.0
20260905104005 76 299 1.7 3.5 0.00 0.00 0.00 65 1025.1
20260905103505 76 183 0.9 6.1 0.00 0.00 0.00 66 1025.1
20260905103004 75 246 0.0 3.5 0.00 0.00 0.00 66 1025.0
20260905102502 75 107 0.9 7.0 0.00 0.00 0.00 66 1025.0
20260905102002 75 80 0.0 4.3 0.00 0.00 0.00 67 1025.0
20260905101502 75 103 0.9 6.1 0.00 0.00 0.00 68 1025.0
20260905101100 75 63 1.7 6.1 0.00 0.00 0.00 68 1025.0
20260905100559 74 79 0.0 2.6 0.00 0.00 0.00 69 1024.9
20260905100105 74 195 0.0 5.2 0.00 0.00 0.00 70 1024.9
20260905095558 74 115 0.9 5.2 0.00 0.00 0.00 70 1025.0
20260905095057 74 303 0.0 2.6 0.00 0.00 0.00 70 1024.9
20260905094607 74 302 0.9 2.6 0.00 0.00 0.00 70 1024.9
20260905094057 74 301 0.9 2.6 0.00 0.00 0.00 70 1024.9
20260905093556 74 281 0.9 2.6 0.00 0.00 0.00 70 1024.9
20260905093056 74 245 0.0 3.5 0.00 0.00 0.00 70 1024.9
20260905092556 74 246 0.9 3.5 0.00 0.00 0.00 70 1024.9
20260905092055 74 335 0.9 2.6 0.00 0.00 0.00 70 1024.8
20260905091606 74 190 0.0 2.6 0.00 0.00 0.00 70 1024.8
20260905091054 74 190 0.0 4.3 0.00 0.00 0.00 70 1024.9
20260905090553 74 134 0.9 4.3 0.00 0.00 0.00 70 1024.8
20260905090052 73 355 0.0 3.5 0.00 0.00 0.00 71 1024.6
20260905085552 73 71 0.0 1.7 0.00 0.00 0.00 72 1024.6
20260905085054 73 71 0.0 1.7 0.00 0.00 0.00 73 1024.6
20260905084549 72 59 0.0 2.6 0.00 0.00 0.00 73 1024.6
20260905084050 72 46 0.0 2.6 0.00 0.00 0.00 73 1024.6
20260905083550 72 37 0.9 2.6 0.00 0.00 0.00 73 1024.6
20260905083047 72 65 0.0 2.6 0.00 0.00 0.00 74 1024.5
20260905082545 71 121 0.0 2.6 0.00 0.00 0.00 74 1024.5